TimeEDT,TemperatureF,Dew PointF,Humidity,Sea Level PressureIn,VisibilityMPH,Wind Direction,Wind SpeedMPH,Gust SpeedMPH,PrecipitationIn,Events,Conditions,WindDirDegrees,DateUTC
12:54 AM,51.1,43.0,74,30.23,10.0,Calm,Calm,-,N/A,,Clear,0,2013-05-27 04:54:00
1:54 AM,51.1,42.1,71,30.23,10.0,Calm,Calm,-,N/A,,Clear,0,2013-05-27 05:54:00
2:54 AM,50.0,43.0,77,30.23,10.0,Calm,Calm,-,N/A,,Clear,0,2013-05-27 06:54:00
3:54 AM,50.0,43.0,77,30.23,10.0,Calm,Calm,-,N/A,,Clear,0,2013-05-27 07:54:00
4:54 AM,46.9,42.1,83,30.24,10.0,Calm,Calm,-,N/A,,Clear,0,2013-05-27 08:54:00
5:54 AM,46.9,42.1,83,30.25,10.0,Calm,Calm,-,N/A,,Clear,0,2013-05-27 09:54:00
6:54 AM,52.0,46.9,83,30.25,10.0,Calm,Calm,-,N/A,,Clear,0,2013-05-27 10:54:00
7:54 AM,59.0,53.1,81,30.26,10.0,Calm,Calm,-,N/A,,Clear,0,2013-05-27 11:54:00
8:54 AM,64.9,52.0,63,30.28,10.0,Calm,Calm,-,N/A,,Clear,0,2013-05-27 12:54:00
9:54 AM,71.1,48.9,45,30.27,10.0,Calm,Calm,-,N/A,,Clear,0,2013-05-27 13:54:00
10:54 AM,73.9,39.0,28,30.27,10.0,WSW,6.9,-,N/A,,Clear,240,2013-05-27 14:54:00
11:54 AM,75.9,41.0,29,30.26,10.0,WNW,10.4,-,N/A,,Clear,290,2013-05-27 15:54:00
12:54 PM,77.0,39.0,25,30.25,10.0,West,5.8,-,N/A,,Clear,270,2013-05-27 16:54:00
1:54 PM,75.0,39.0,27,30.25,10.0,West,9.2,-,N/A,,Clear,260,2013-05-27 17:54:00
2:54 PM,75.0,39.9,28,30.23,10.0,West,9.2,-,N/A,,Clear,260,2013-05-27 18:54:00
3:54 PM,75.0,41.0,29,30.22,10.0,West,5.8,-,N/A,,Clear,270,2013-05-27 19:54:00
4:54 PM,73.0,45.0,37,30.20,10.0,West,5.8,-,N/A,,Clear,270,2013-05-27 20:54:00
5:54 PM,73.0,45.0,37,30.19,10.0,West,3.5,-,N/A,,Clear,270,2013-05-27 21:54:00
6:54 PM,71.1,50.0,47,30.20,10.0,Calm,Calm,-,N/A,,Clear,0,2013-05-27 22:54:00
7:54 PM,69.1,55.0,61,30.21,10.0,Calm,Calm,-,N/A,,Clear,0,2013-05-27 23:54:00
8:54 PM,66.0,55.9,70,30.21,10.0,Calm,Calm,-,N/A,,Clear,0,2013-05-28 00:54:00
9:54 PM,64.9,53.1,65,30.22,10.0,Calm,Calm,-,N/A,,Mostly Cloudy,0,2013-05-28 01:54:00
10:54 PM,64.9,53.1,65,30.22,10.0,ESE,3.5,-,N/A,,Overcast,110,2013-05-28 02:54:00
11:54 PM,64.9,52.0,63,30.22,10.0,Calm,Calm,-,N/A,,Overcast,0,2013-05-28 03:54:00